EW9487 Weather Reports


time (UTC)temp
C
wind
direction
speed
KPH
gust
KPH
rain 1hr
cm
rain 24hr
cm
rain mn
cm
humidity
%
barometer
mb
20260502151614 13 309 1.6 6.4 0.00 0.00 0.00 65 1013.5
20260502123050 11 347 0.0 1.6 0.00 0.00 0.00 64 1012.6
20260502121546 11 58 0.0 0.0 0.00 0.00 0.00 53 1012.6
20260502114538 10 164 0.0 0.0 0.00 0.00 0.00 37 1012.3
20260502113032 -17 0.0 0.0 0.00 0.00 0.00 1012.3
20260502111525 -17 0.0 0.0 0.00 0.00 0.00 1012.4
20260502110021 -17 0.0 0.0 0.00 0.00 0.00 1012.4
20260502104525 -17 0.0 0.0 0.00 0.00 0.00 1012.5
20260502101521 -17 0.0 0.0 0.00 0.00 0.00 1012.0
20260502091534 -67 152 0.0 0.0 0.00 0.00 0.00 43 1011.8
20260502071510 9 165 0.0 0.0 0.00 0.00 0.00 53 1011.2
20260502070009 9 165 0.0 0.0 0.00 0.00 0.00 53 1010.9
20260502064508 9 165 0.0 0.0 0.00 0.00 0.00 55 1010.9
20260502063037 9 165 0.0 0.0 0.00 0.00 0.00 56 1010.9
20260502061535 9 165 0.0 0.0 0.00 0.00 0.00 58 1011.1
20260502060039 9 165 0.0 0.0 0.00 0.00 0.00 59 1011.3
20260502054540 9 165 0.0 0.0 0.00 0.00 0.00 61 1011.4
20260502053028 10 165 0.0 0.0 0.00 0.00 0.00 64 1011.7
20260502051526 10 165 0.0 0.0 0.00 0.00 0.00 65 1011.7
20260502050023 10 165 0.0 0.0 0.00 0.00 0.00 68 1011.9
20260502044521 10 165 0.0 0.0 0.00 0.00 0.00 68 1011.8
20260502043020 10 165 0.0 0.0 0.00 0.00 0.00 69 1012.0
20260502041529 10 165 0.0 0.0 0.00 0.00 0.00 70 1012.0
20260502040014 11 165 0.0 0.0 0.00 0.00 0.00 71 1012.1
20260502034507 11 165 0.0 0.0 0.00 0.00 0.00 72 1012.2
20260502033006 11 166 0.0 0.0 0.00 0.00 0.00 72 1012.3
20260502031505 11 167 0.0 0.0 0.00 0.00 0.00 72 1012.1
20260502030048 11 165 0.0 0.0 0.00 0.00 0.00 73 1012.0
20260502024530 11 164 0.0 0.0 0.00 0.00 0.00 73 1011.8
20260502023032 12 164 0.0 0.0 0.00 0.00 0.00 73 1011.9
20260502021522 12 164 0.0 0.0 0.00 0.00 0.00 72 1011.8
20260502020020 12 167 0.0 0.0 0.00 0.00 0.00 72 1011.8
20260502014521 12 164 0.0 0.0 0.00 0.00 0.00 72 1011.9
20260502013013 12 172 0.0 0.0 0.00 0.00 0.00 71 1011.6
20260502011512 13 158 0.0 0.0 0.00 0.00 0.00 70 1011.6
20260502010009 13 154 0.0 0.0 0.00 0.00 0.00 70 1011.2
20260502004508 13 162 0.0 0.0 0.00 0.00 0.00 69 1011.0
20260502003002 13 162 0.0 0.0 0.00 0.00 0.00 68 1010.6
20260502001605 14 162 0.0 0.0 0.00 0.00 0.00 66 1010.5
20260502000106 15 162 0.0 0.0 0.00 0.00 0.00 64 1010.5
20260501234551 16 162 0.0 0.0 0.00 0.00 0.00 59 1010.4
20260501233102 16 162 0.0 0.0 0.00 0.00 0.00 58 1010.4
20260501231548 17 162 0.0 0.0 0.00 0.00 0.00 55 1010.5
20260501230108 17 168 0.0 0.0 0.00 0.00 0.00 53 1010.6
20260501224547 17 165 0.0 0.0 0.00 0.00 0.00 49 1010.8
20260501223029 18 213 0.0 0.0 0.00 0.00 0.00 45 1010.7
20260501221610 18 161 0.0 0.0 0.00 0.00 0.00 43 1010.7
20260501220103 19 158 0.0 6.4 0.00 0.00 0.00 42 1010.7
20260501214547 20 220 0.0 3.2 0.00 0.00 0.00 41 1010.8
20260501213047 20 224 1.6 8.0 0.00 0.00 0.00 40 1010.6
20260501211544 21 140 0.0 8.0 0.00 0.00 0.00 39 1010.6
20260501210043 21 162 1.6 8.0 0.00 0.00 0.00 37 1010.6
20260501204512 21 173 0.0 4.8 0.00 0.00 0.00 36 1010.7
20260501203020 21 155 0.0 6.4 0.00 0.00 0.00 36 1010.9
20260501201505 21 68 0.0 4.8 0.00 0.00 0.00 34 1011.2
20260501200002 21 153 1.6 6.4 0.00 0.00 0.00 35 1011.5
20260501194601 21 231 0.0 3.2 0.00 0.00 0.00 36 1011.8
20260501193058 21 141 1.6 8.0 0.00 0.00 0.00 34 1011.9
20260501191555 21 162 0.0 4.8 0.00 0.00 0.00 37 1011.9
20260501190052 21 213 0.0 4.8 0.00 0.00 0.00 35 1012.2
20260501184549 21 245 0.0 0.0 0.00 0.00 0.00 35 1012.5
20260501183046 21 176 0.0 0.0 0.00 0.00 0.00 32 1012.7
20260501181542 21 203 0.0 4.8 0.00 0.00 0.00 36 1012.9
20260501180042 21 148 0.0 4.8 0.00 0.00 0.00 35 1013.3
20260501174539 21 271 0.0 4.8 0.00 0.00 0.00 35 1013.5
20260501173035 21 43 0.0 1.6 0.00 0.00 0.00 35 1013.6
20260501171533 21 171 0.0 4.8 0.00 0.00 0.00 37 1013.7
20260501170032 21 64 0.0 3.2 0.00 0.00 0.00 37 1013.9
20260501164544 20 216 0.0 0.0 0.00 0.00 0.00 39 1013.8
20260501163031 18 347 1.6 8.0 0.00 0.00 0.00 39 1014.1
20260501161516 20 49 0.0 4.8 0.00 0.00 0.00 44 1014.3